Location: Bartlow
(52.0833°N, 0.3167°E)
Time: 11:14:04
(UTC+00:00)

Cosmos 1271 Rocket - Pass Details

Date: 26 September 2023
Orbit: 480 x 522 km, 81.2° (Epoch: 29 November)

Event Time Altitude Azimuth Distance (km) Brightness Sun altitude
Rises 04:31:58 0° 347° (NNW) 2,637 6.3 -12.8°
Reaches altitude 10° 04:34:07 10° 347° (NNW) 1,737 5.4 -12.5°
Maximum altitude 04:37:56 88° 258° (WSW) 510 2.6 -11.9°
Drops below altitude 10° 04:41:40 10° 169° (S) 1,694 5.3 -11.4°
Sets 04:43:45 0° 170° (S) 2,564 6.2 -11.0°
